Location: Unspecified
(43.4680°N, 87.1740°E)
Time: 05:10:50
(UTC+00:00)

Cosmos 1356 Rocket - Pass Details

Date: 03 August 2021
Orbit: 543 x 597 km, 81.2° (Epoch: 27 September)

Event Time Altitude Azimuth Distance (km) Brightness Sun altitude
Exits shadow 20:17:24 31° 306° (NW) 967 4.5 -23.3°
Drops below altitude 10° 20:20:25 10° 352° (N) 1,819 6.6 -23.0°
Sets 20:22:45 0° 2° (N) 2,717 7.8 -22.8°
